CST,Max TemperatureF,Mean TemperatureF,Min TemperatureF,Max Dew PointF,MeanDew PointF,Min DewpointF,Max Humidity, Mean Humidity, Min Humidity, Max Sea Level PressureIn, Mean Sea Level PressureIn, Min Sea Level PressureIn, Max VisibilityMiles, Mean VisibilityMiles, Min VisibilityMiles, Max Wind SpeedMPH, Mean Wind SpeedMPH, Max Gust SpeedMPH,PrecipitationIn, CloudCover, Events, WindDirDegrees
2011-11-1,69,50,32,36,33,30,100,60,24,30.29,30.23,30.19,10.0,10.0,10.0,13,2,16,0.00,0,,183
2011-11-2,69,52,35,37,36,32,87,50,30,30.28,30.17,30.05,10.0,10.0,10.0,14,6,22,0.00,0,,180
2011-11-3,55,48,42,52,42,36,94,78,47,30.04,29.90,29.81,10.0,9.6,4.0,18,10,30,0.26,6,Rain,209
2011-11-4,53,44,33,48,44,34,100,89,72,30.24,30.15,29.98,10.0,6.0,0.2,12,6,,0.00,6,Fog,348
2011-11-5,64,48,32,45,39,32,100,75,42,30.26,30.19,30.13,10.0,6.4,0.2,8,2,,0.00,3,Fog,146
2011-11-6,64,54,44,43,39,34,76,57,40,30.31,30.24,30.15,10.0,10.0,10.0,18,9,23,0.00,1,,176
2011-11-7,69,61,53,54,50,45,82,69,56,30.29,30.23,30.16,10.0,10.0,10.0,12,8,18,0.00,5,,188
2011-11-8,73,63,53,52,50,46,82,63,47,30.17,30.06,29.93,10.0,10.0,7.0,18,8,28,0.00,1,,174
2011-11-9,66,50,35,61,44,32,94,68,50,30.19,30.00,29.81,10.0,9.8,5.0,25,14,34,0.03,5,Rain,252
2011-11-10,50,41,32,34,25,19,100,61,32,30.18,30.16,30.13,10.0,10.0,10.0,25,8,32,0.00,1,,272
2011-11-11,57,42,26,32,26,21,93,56,30,30.20,30.08,29.98,10.0,10.0,10.0,13,5,18,0.00,0,,200
2011-11-12,62,53,44,37,34,32,61,46,32,30.09,30.02,29.91,10.0,10.0,10.0,24,13,32,0.00,1,,198
2011-11-13,71,64,57,54,50,34,68,57,41,29.91,29.82,29.75,10.0,10.0,10.0,28,18,40,0.00,6,,201
2011-11-14,75,67,59,61,58,54,94,69,56,29.88,29.79,29.73,10.0,9.7,2.0,26,16,36,0.32,6,Rain,215
2011-11-15,59,55,51,57,54,50,100,97,88,29.93,29.86,29.81,10.0,8.9,4.0,14,6,18,0.84,8,Rain,159
2011-11-16,55,46,37,55,41,27,100,77,49,30.20,29.98,29.81,10.0,8.1,2.0,22,9,26,0.92,6,Rain,357
2011-11-17,46,37,28,32,24,16,93,59,31,30.38,30.32,30.20,10.0,10.0,10.0,20,8,26,0.00,2,Rain,323
2011-11-18,50,39,28,25,21,18,80,58,28,30.40,30.37,30.28,10.0,10.0,10.0,15,6,21,0.00,0,,176
2011-11-19,60,55,50,59,53,48,100,96,94,30.19,30.16,30.12,7.0,3.8,2.0,7,3,16,0.16,8,Rain,286
2011-11-20,60,55,50,59,55,50,100,94,88,30.21,30.12,30.05,10.0,5.5,0.2,17,4,22,0.50,8,Fog-Rain,351
2011-11-21,68,57,46,61,53,43,100,88,68,30.06,29.90,29.75,10.0,7.0,0.2,22,7,28,1.20,7,Fog-Rain,264
2011-11-22,46,44,42,43,42,41,93,89,81,30.35,30.25,30.04,10.0,6.0,2.5,12,7,18,0.00,8,,309
2011-11-23,51,42,33,45,41,32,100,91,71,30.41,30.34,30.27,10.0,5.7,0.2,9,4,,0.00,6,Fog-Rain,211
2011-11-24,64,50,35,43,36,32,100,59,30,30.26,30.18,30.09,10.0,9.8,1.8,17,7,26,0.00,0,,189
2011-11-25,71,61,51,55,47,37,88,59,43,30.12,30.00,29.87,10.0,9.8,3.0,18,10,25,0.27,5,Rain,178
2011-11-26,57,46,35,55,41,34,100,91,87,30.05,29.96,29.83,10.0,8.0,3.0,15,7,21,1.22,8,Rain-Snow,325
2011-11-27,44,38,33,43,37,32,100,91,87,30.02,29.80,29.64,10.0,7.9,1.5,21,11,26,0.38,8,Rain-Snow,10
2011-11-28,39,37,35,37,33,32,100,87,81,30.04,29.82,29.67,10.0,9.5,3.0,17,8,23,0.01,8,Rain,256
2011-11-29,42,35,28,30,28,27,93,77,53,30.23,30.15,30.03,10.0,10.0,10.0,12,6,,0.00,0,,294
2011-11-30,28,27,26,27,25,23,100,93,86,30.28,30.26,30.22,10.0,9.5,7.0,4,1,,0.00,0,,170